VJH095 EGKK-EDDH

Flight info

Callsign VJH095
Flight time 1h 21m
Altitude 37000
Route FRANE M604 PAAVO Q295 SOMVA DCT MAVAS DCT TULIP Y12 SPY N873 ANDIK M105 RIBSO RIBSO3P
Aircraft E190/M-SDE1E2E3FGHIJ3J4J7P2RWXY/LB1D1G1

Departure

Time 2026-04-16 21:47
Airport London Gatwick Airport (EGKK)

Arrival

Time 2026-04-16 23:09
Airport Hamburg Helmut Schmidt Airport (EDDH)
Time Latitude Longitude Altitude Speed Heading
2026-04-16 21:13 51.15494 -0.16904 186 ft 0 kts 348°
2026-04-16 21:14 51.15531 -0.16600 196 ft 0 kts 348°
2026-04-16 21:37 51.15523 -0.16598 196 ft 2 kts 347°
2026-04-16 21:37 51.15509 -0.16593 196 ft 2 kts 347°
2026-04-16 21:37 51.15494 -0.16588 196 ft 2 kts 347°
2026-04-16 21:37 51.15480 -0.16583 196 ft 1 kts 347°
2026-04-16 21:38 51.15479 -0.16583 196 ft 0 kts 347°
2026-04-16 21:40 51.15482 -0.16585 196 ft 0 kts 322°
2026-04-16 21:41 51.15482 -0.16595 196 ft 1 kts 249°
2026-04-16 21:41 51.15468 -0.16621 195 ft 4 kts 236°
2026-04-16 21:41 51.15456 -0.16680 193 ft 6 kts 254°
2026-04-16 21:41 51.15419 -0.16718 191 ft 7 kts 182°
2026-04-16 21:42 51.15367 -0.16704 190 ft 7 kts 168°
2026-04-16 21:42 51.15342 -0.16693 190 ft 0 kts 158°
2026-04-16 21:42 51.15335 -0.16688 190 ft 1 kts 158°
2026-04-16 21:42 51.15321 -0.16681 190 ft 2 kts 165°
2026-04-16 21:43 51.15303 -0.16674 191 ft 3 kts 166°
2026-04-16 21:43 51.15281 -0.16666 191 ft 3 kts 167°
2026-04-16 21:43 51.15254 -0.16657 191 ft 4 kts 168°
2026-04-16 21:43 51.15244 -0.16654 191 ft 0 kts 168°
2026-04-16 21:44 51.15243 -0.16653 191 ft 0 kts 167°
2026-04-16 21:44 51.15236 -0.16651 192 ft 1 kts 167°
2026-04-16 21:45 51.15222 -0.16646 192 ft 2 kts 167°
2026-04-16 21:45 51.15205 -0.16640 192 ft 2 kts 166°
2026-04-16 21:45 51.15177 -0.16629 192 ft 5 kts 169°
2026-04-16 21:45 51.15142 -0.16664 191 ft 9 kts 251°
2026-04-16 21:46 51.15138 -0.16686 191 ft 0 kts 256°
2026-04-16 21:46 51.15103 -0.16938 185 ft 53 kts 257°
2026-04-16 21:46 51.14992 -0.17749 194 ft 95 kts 257°
2026-04-16 21:47 51.14809 -0.19052 197 ft 149 kts 256°
2026-04-16 21:47 51.14582 -0.20802 602 ft 172 kts 257°
2026-04-16 21:47 51.14363 -0.22648 1520 ft 170 kts 257°
2026-04-16 21:47 51.14203 -0.24312 2601 ft 152 kts 258°
2026-04-16 21:48 51.14066 -0.25901 3629 ft 147 kts 266°
2026-04-16 21:48 51.14441 -0.27295 4609 ft 148 kts 313°
2026-04-16 21:48 51.15478 -0.28024 4992 ft 190 kts 353°
2026-04-16 21:48 51.16872 -0.27426 5066 ft 231 kts 35°
2026-04-16 21:49 51.17822 -0.25336 5022 ft 239 kts 75°
2026-04-16 21:49 51.18259 -0.22753 5118 ft 252 kts 78°
2026-04-16 21:49 51.18724 -0.20011 5686 ft 263 kts 77°
2026-04-16 21:49 51.19215 -0.17143 6184 ft 278 kts 77°
2026-04-16 21:50 51.19748 -0.14058 6778 ft 292 kts 77°
2026-04-16 21:50 51.20288 -0.10935 7567 ft 292 kts 77°
2026-04-16 21:50 51.20842 -0.07725 7440 ft 304 kts 76°
2026-04-16 21:50 51.21397 -0.04525 6989 ft 299 kts 77°
2026-04-16 21:51 51.21939 -0.01387 6550 ft 293 kts 76°
2026-04-16 21:51 51.22473 0.01717 6108 ft 289 kts 76°
2026-04-16 21:51 51.22996 0.04768 5667 ft 285 kts 76°
2026-04-16 21:51 51.23515 0.07797 5224 ft 282 kts 77°
2026-04-16 21:52 51.24020 0.10750 5000 ft 275 kts 77°
2026-04-16 21:52 51.24524 0.13700 4984 ft 277 kts 77°
2026-04-16 21:52 51.25029 0.16668 4984 ft 279 kts 77°
2026-04-16 21:52 51.25458 0.19716 4974 ft 278 kts 91°
2026-04-16 21:53 51.25322 0.22771 4994 ft 276 kts 98°
2026-04-16 21:53 51.25123 0.25777 4983 ft 276 kts 98°
2026-04-16 21:53 51.24922 0.28813 4980 ft 276 kts 99°
2026-04-16 21:53 51.24718 0.31871 4986 ft 276 kts 98°
2026-04-16 21:54 51.24515 0.34927 4976 ft 277 kts 98°
2026-04-16 21:54 51.24313 0.37937 4974 ft 276 kts 98°
2026-04-16 21:54 51.24107 0.41012 4969 ft 276 kts 98°
2026-04-16 21:54 51.23903 0.44028 4969 ft 276 kts 98°
2026-04-16 21:55 51.23696 0.47084 4972 ft 276 kts 98°
2026-04-16 21:55 51.23584 0.50151 4969 ft 280 kts 83°
2026-04-16 21:55 51.24376 0.52975 4986 ft 282 kts 48°
2026-04-16 21:55 51.25915 0.54895 4993 ft 282 kts 33°
2026-04-16 21:56 51.27538 0.56640 4982 ft 283 kts 33°
2026-04-16 21:56 51.29157 0.58382 4976 ft 282 kts 33°
2026-04-16 21:56 51.30869 0.59846 4970 ft 280 kts 13°
2026-04-16 21:56 51.32762 0.60594 4978 ft 280 kts 11°
2026-04-16 21:57 51.34706 0.61329 5132 ft 296 kts 11°
2026-04-16 21:57 51.36709 0.62084 5863 ft 293 kts 11°
2026-04-16 21:57 51.38655 0.62817 6125 ft 285 kts 11°
2026-04-16 21:57 51.40570 0.63542 6170 ft 285 kts 11°
2026-04-16 21:58 51.42524 0.64281 6397 ft 301 kts 11°
2026-04-16 21:58 51.44572 0.65058 7236 ft 303 kts 12°
2026-04-16 21:58 51.46588 0.65823 8139 ft 299 kts 12°
2026-04-16 21:58 51.48593 0.66584 9018 ft 299 kts 12°
2026-04-16 21:59 51.50613 0.67351 9813 ft 302 kts 11°
2026-04-16 21:59 51.52652 0.68127 10536 ft 305 kts 11°
2026-04-16 21:59 51.54731 0.68918 11179 ft 311 kts 11°
2026-04-16 21:59 51.56854 0.69727 11760 ft 316 kts 11°
2026-04-16 22:00 51.59016 0.70549 12481 ft 329 kts 11°
2026-04-16 22:00 51.61244 0.71396 13254 ft 333 kts 11°
2026-04-16 22:00 51.63538 0.72269 14069 ft 340 kts 10°
2026-04-16 22:00 51.65813 0.73135 14870 ft 345 kts 10°
2026-04-16 22:01 51.68167 0.74033 15713 ft 349 kts 10°
2026-04-16 22:01 51.70530 0.74935 16521 ft 351 kts 10°
2026-04-16 22:01 51.72918 0.75848 17328 ft 357 kts 10°
2026-04-16 22:01 51.75312 0.76765 18137 ft 360 kts 10°
2026-04-16 22:02 51.77774 0.77710 18968 ft 365 kts
2026-04-16 22:02 51.80254 0.78663 19780 ft 370 kts
2026-04-16 22:02 51.82736 0.79757 20586 ft 377 kts 20°
2026-04-16 22:02 51.84883 0.82202 21413 ft 386 kts 46°
2026-04-16 22:03 51.86354 0.85781 22253 ft 388 kts 66°
2026-04-16 22:03 51.87449 0.89794 23102 ft 389 kts 66°
2026-04-16 22:03 51.88501 0.93783 23914 ft 390 kts 67°
2026-04-16 22:03 51.89546 0.97822 24748 ft 390 kts 67°
2026-04-16 22:04 51.90577 1.01833 25601 ft 389 kts 67°
2026-04-16 22:04 51.91594 1.05803 26456 ft 388 kts 66°
2026-04-16 22:04 51.92622 1.09828 27321 ft 386 kts 66°
2026-04-16 22:04 51.93632 1.13790 28184 ft 383 kts 66°
2026-04-16 22:05 51.94634 1.17724 29043 ft 379 kts 66°
2026-04-16 22:05 51.96645 1.25644 29146 ft 385 kts 66°
2026-04-16 22:06 51.98680 1.33691 29210 ft 397 kts 66°
2026-04-16 22:06 52.00773 1.41997 30583 ft 399 kts 66°
2026-04-16 22:06 52.01809 1.46120 31242 ft 399 kts 66°
2026-04-16 22:07 52.02847 1.50258 31900 ft 398 kts 66°
2026-04-16 22:07 52.03891 1.54428 32566 ft 397 kts 65°
2026-04-16 22:07 52.04911 1.58510 33215 ft 395 kts 65°
2026-04-16 22:07 52.05936 1.62615 33869 ft 393 kts 66°
2026-04-16 22:08 52.06963 1.66743 34516 ft 389 kts 66°
2026-04-16 22:08 52.07961 1.70760 35083 ft 385 kts 66°
2026-04-16 22:08 52.08943 1.74717 35637 ft 380 kts 66°
2026-04-16 22:08 52.09928 1.78695 36192 ft 374 kts 66°
2026-04-16 22:09 52.10879 1.82541 36779 ft 367 kts 66°
2026-04-16 22:09 52.11827 1.86381 37162 ft 370 kts 66°
2026-04-16 22:09 52.12790 1.90286 37179 ft 382 kts 66°
2026-04-16 22:09 52.13789 1.94347 37194 ft 395 kts 66°
2026-04-16 22:10 52.14825 1.98572 37194 ft 408 kts 66°
2026-04-16 22:10 52.15887 2.02905 37199 ft 421 kts 66°
2026-04-16 22:10 52.16992 2.07428 37200 ft 434 kts 66°
2026-04-16 22:10 52.18120 2.12051 37200 ft 447 kts 66°
2026-04-16 22:11 52.19281 2.16822 37196 ft 460 kts 66°
2026-04-16 22:11 52.20474 2.21735 37184 ft 473 kts 66°
2026-04-16 22:11 52.22841 2.31514 37163 ft 456 kts 66°
2026-04-16 22:12 52.25137 2.41041 37180 ft 457 kts 66°
2026-04-16 22:12 52.27451 2.50686 37182 ft 457 kts 66°
2026-04-16 22:13 52.29750 2.60310 37182 ft 457 kts 66°
2026-04-16 22:13 52.31743 2.70158 37176 ft 459 kts 72°
2026-04-16 22:14 52.33502 2.80129 37175 ft 459 kts 72°
2026-04-16 22:14 52.35260 2.90152 37187 ft 458 kts 72°
2026-04-16 22:15 52.36998 3.00117 37189 ft 458 kts 72°
2026-04-16 22:15 52.38730 3.10105 37186 ft 458 kts 72°
2026-04-16 22:16 52.39684 3.20372 37201 ft 460 kts 91°
2026-04-16 22:16 52.39266 3.30776 37200 ft 460 kts 94°
2026-04-16 22:17 52.38813 3.41159 37203 ft 460 kts 94°
2026-04-16 22:17 52.38355 3.51496 37202 ft 459 kts 94°
2026-04-16 22:18 52.37884 3.61912 37207 ft 460 kts 94°
2026-04-16 22:18 52.37408 3.72260 37203 ft 460 kts 95°
2026-04-16 22:19 52.36981 3.82707 37194 ft 460 kts 89°
2026-04-16 22:19 52.37246 3.87865 37216 ft 458 kts 78°
2026-04-16 22:19 52.37992 3.92869 37214 ft 456 kts 70°
2026-04-16 22:20 52.39793 4.02775 37210 ft 455 kts 71°
2026-04-16 22:20 52.41547 4.12731 37209 ft 455 kts 71°
2026-04-16 22:21 52.43280 4.22639 37212 ft 455 kts 71°
2026-04-16 22:21 52.45011 4.32592 37212 ft 455 kts 71°
2026-04-16 22:22 52.46728 4.42519 37213 ft 455 kts 71°
2026-04-16 22:22 52.48457 4.52571 37213 ft 456 kts 71°
2026-04-16 22:23 52.50160 4.62531 37219 ft 456 kts 71°
2026-04-16 22:23 52.51858 4.72519 37214 ft 456 kts 71°
2026-04-16 22:24 52.53619 4.82399 37213 ft 453 kts 65°
2026-04-16 22:24 52.54979 4.87037 37226 ft 447 kts 54°
2026-04-16 22:24 52.56738 4.91171 37226 ft 441 kts 45°
2026-04-16 22:25 52.60571 4.99002 37217 ft 441 kts 46°
2026-04-16 22:25 52.64368 5.06925 37218 ft 443 kts 46°
2026-04-16 22:26 52.68160 5.14874 37217 ft 441 kts 46°
2026-04-16 22:26 52.71918 5.22775 37213 ft 441 kts 46°
2026-04-16 22:27 52.74983 5.31634 37221 ft 454 kts 66°
2026-04-16 22:27 52.77054 5.41400 37218 ft 453 kts 66°
2026-04-16 22:28 52.79160 5.51203 37217 ft 452 kts 66°
2026-04-16 22:28 52.81244 5.60942 37216 ft 452 kts 65°
2026-04-16 22:29 52.83327 5.70715 37206 ft 451 kts 66°
2026-04-16 22:29 52.85408 5.80526 37204 ft 453 kts 66°
2026-04-16 22:30 52.87474 5.90315 37206 ft 453 kts 66°
2026-04-16 22:30 52.89530 6.00105 37211 ft 452 kts 66°
2026-04-16 22:31 52.91583 6.09928 37212 ft 452 kts 66°
2026-04-16 22:31 52.93614 6.19691 37220 ft 452 kts 66°
2026-04-16 22:32 52.95656 6.29557 37226 ft 453 kts 66°
2026-04-16 22:32 52.97668 6.39327 37231 ft 452 kts 66°
2026-04-16 22:33 52.99689 6.49189 37240 ft 450 kts 66°
2026-04-16 22:33 53.01691 6.59007 37234 ft 451 kts 66°
2026-04-16 22:34 53.03690 6.68859 37232 ft 451 kts 67°
2026-04-16 22:34 53.05672 6.78673 37231 ft 452 kts 67°
2026-04-16 22:35 53.06681 6.83688 37241 ft 464 kts 67°
2026-04-16 22:35 53.07714 6.88833 37230 ft 475 kts 67°
2026-04-16 22:35 53.09782 6.99192 37230 ft 475 kts 67°
2026-04-16 22:36 53.11830 7.09498 37226 ft 467 kts 67°
2026-04-16 22:36 53.13841 7.19665 36799 ft 465 kts 66°
2026-04-16 22:37 53.14854 7.24809 36302 ft 475 kts 66°
2026-04-16 22:37 53.15877 7.30025 35798 ft 476 kts 66°
2026-04-16 22:37 53.16898 7.35246 35286 ft 474 kts 66°
2026-04-16 22:37 53.17903 7.40393 34779 ft 474 kts 66°
2026-04-16 22:38 53.18924 7.45641 34189 ft 473 kts 66°
2026-04-16 22:38 53.19926 7.50802 33605 ft 472 kts 66°
2026-04-16 22:38 53.20920 7.55938 33019 ft 472 kts 66°
2026-04-16 22:38 53.21920 7.61118 32429 ft 473 kts 66°
2026-04-16 22:39 53.22922 7.66319 31841 ft 472 kts 67°
2026-04-16 22:39 53.23924 7.71529 31236 ft 472 kts 68°
2026-04-16 22:39 53.24920 7.76725 30625 ft 470 kts 68°
2026-04-16 22:39 53.25911 7.81916 29958 ft 463 kts 68°
2026-04-16 22:40 53.26873 7.86962 29308 ft 457 kts 68°
2026-04-16 22:40 53.27819 7.91934 28662 ft 451 kts 68°
2026-04-16 22:40 53.28762 7.96906 28006 ft 445 kts 68°
2026-04-16 22:40 53.29676 8.01740 27362 ft 440 kts 68°
2026-04-16 22:41 53.30587 8.06565 26710 ft 436 kts 68°
2026-04-16 22:41 53.31485 8.11341 26064 ft 430 kts 68°
2026-04-16 22:41 53.32375 8.16084 25410 ft 425 kts 68°
2026-04-16 22:41 53.33381 8.20669 24857 ft 416 kts 64°
2026-04-16 22:42 53.34425 8.25154 24394 ft 414 kts 64°
2026-04-16 22:42 53.35449 8.29579 23950 ft 413 kts 65°
2026-04-16 22:42 53.36481 8.34058 23490 ft 410 kts 65°
2026-04-16 22:42 53.37495 8.38474 23047 ft 408 kts 65°
2026-04-16 22:43 53.38509 8.42895 22601 ft 405 kts 65°
2026-04-16 22:43 53.39500 8.47228 22160 ft 402 kts 65°
2026-04-16 22:43 53.40516 8.51547 21711 ft 397 kts 62°
2026-04-16 22:43 53.41650 8.55703 21290 ft 394 kts 61°
2026-04-16 22:44 53.42784 8.59872 20842 ft 392 kts 61°
2026-04-16 22:44 53.43888 8.63954 20428 ft 388 kts 61°
2026-04-16 22:44 53.45011 8.68108 19990 ft 386 kts 62°
2026-04-16 22:44 53.46108 8.72176 19568 ft 384 kts 62°
2026-04-16 22:45 53.47207 8.76264 19147 ft 382 kts 62°
2026-04-16 22:45 53.48286 8.80281 18729 ft 379 kts 62°
2026-04-16 22:45 53.49362 8.84294 18314 ft 377 kts 62°
2026-04-16 22:45 53.50431 8.88287 17906 ft 375 kts 62°
2026-04-16 22:46 53.51490 8.92253 17485 ft 372 kts 63°
2026-04-16 22:46 53.52534 8.96165 17085 ft 369 kts 63°
2026-04-16 22:46 53.53672 9.00019 16664 ft 363 kts 51°
2026-04-16 22:46 53.55434 9.02879 16291 ft 353 kts 33°
2026-04-16 22:47 53.57410 9.05289 15889 ft 351 kts 32°
2026-04-16 22:47 53.59364 9.07640 15503 ft 349 kts 32°
2026-04-16 22:47 53.61327 9.09994 15112 ft 347 kts 32°
2026-04-16 22:47 53.63297 9.12356 14730 ft 345 kts 32°
2026-04-16 22:48 53.65226 9.14669 14355 ft 344 kts 32°
2026-04-16 22:48 53.67177 9.17011 13975 ft 343 kts 33°
2026-04-16 22:48 53.69120 9.19347 13595 ft 342 kts 32°
2026-04-16 22:48 53.71034 9.21650 13221 ft 340 kts 33°
2026-04-16 22:49 53.72950 9.23956 12846 ft 338 kts 33°
2026-04-16 22:49 53.74857 9.26256 12474 ft 336 kts 33°
2026-04-16 22:49 53.76738 9.28527 12107 ft 335 kts 33°
2026-04-16 22:49 53.78625 9.30807 11739 ft 329 kts 33°
2026-04-16 22:50 53.80407 9.33139 11361 ft 324 kts 45°
2026-04-16 22:50 53.81471 9.36369 11232 ft 318 kts 73°
2026-04-16 22:50 53.81977 9.40016 11263 ft 318 kts 76°
2026-04-16 22:50 53.82444 9.43695 11259 ft 320 kts 77°
2026-04-16 22:51 53.82897 9.47372 11254 ft 320 kts 77°
2026-04-16 22:51 53.83343 9.51035 11251 ft 317 kts 77°
2026-04-16 22:51 53.83765 9.54529 11225 ft 296 kts 77°
2026-04-16 22:51 53.84164 9.57847 11215 ft 276 kts 77°
2026-04-16 22:52 53.84534 9.60923 11215 ft 266 kts 77°
2026-04-16 22:52 53.84906 9.64024 11233 ft 267 kts 77°
2026-04-16 22:52 53.85273 9.67099 11237 ft 270 kts 77°
2026-04-16 22:52 53.85645 9.70217 11235 ft 271 kts 78°
2026-04-16 22:53 53.86019 9.73367 11237 ft 271 kts 77°
2026-04-16 22:53 53.86388 9.76477 11234 ft 270 kts 77°
2026-04-16 22:53 53.86704 9.79630 11224 ft 272 kts 90°
2026-04-16 22:53 53.86542 9.82806 11246 ft 272 kts 96°
2026-04-16 22:54 53.86323 9.85956 11231 ft 272 kts 96°
2026-04-16 22:54 53.86098 9.89153 11234 ft 271 kts 96°
2026-04-16 22:54 53.85878 9.92287 11232 ft 272 kts 96°
2026-04-16 22:54 53.85651 9.95481 11236 ft 272 kts 96°
2026-04-16 22:55 53.85428 9.98622 11232 ft 272 kts 96°
2026-04-16 22:55 53.85200 10.01819 11237 ft 273 kts 96°
2026-04-16 22:55 53.84972 10.05013 11232 ft 273 kts 96°
2026-04-16 22:55 53.84743 10.08190 11229 ft 271 kts 96°
2026-04-16 22:56 53.84515 10.11353 11231 ft 273 kts 96°
2026-04-16 22:56 53.84286 10.14511 11233 ft 272 kts 96°
2026-04-16 22:56 53.84103 10.17667 11226 ft 272 kts 84°
2026-04-16 22:56 53.84721 10.20622 11269 ft 266 kts 51°
2026-04-16 22:57 53.85858 10.23061 11304 ft 266 kts 47°
2026-04-16 22:57 53.87036 10.25492 11200 ft 267 kts 47°
2026-04-16 22:57 53.88217 10.27905 10810 ft 272 kts 47°
2026-04-16 22:57 53.89414 10.30345 10418 ft 268 kts 47°
2026-04-16 22:58 53.90589 10.32739 10102 ft 262 kts 47°
2026-04-16 22:58 53.91744 10.35090 9814 ft 258 kts 47°
2026-04-16 22:58 53.92889 10.37424 9532 ft 257 kts 47°
2026-04-16 22:58 53.94027 10.39743 9253 ft 257 kts 47°
2026-04-16 22:59 53.95135 10.42114 8961 ft 259 kts 58°
2026-04-16 22:59 53.95517 10.45072 8716 ft 260 kts 97°
2026-04-16 22:59 53.94834 10.47881 8272 ft 264 kts 133°
2026-04-16 22:59 53.93482 10.49873 7949 ft 257 kts 142°
2026-04-16 23:00 53.92062 10.51705 7624 ft 252 kts 155°
2026-04-16 23:00 53.90398 10.52155 7396 ft 241 kts 195°
2026-04-16 23:00 53.88955 10.50888 6985 ft 238 kts 227°
2026-04-16 23:00 53.87828 10.48874 6665 ft 234 kts 230°
2026-04-16 23:01 53.86759 10.46833 6377 ft 231 kts 231°
2026-04-16 23:01 53.85708 10.44767 6111 ft 230 kts 232°
2026-04-16 23:01 53.84686 10.42724 5860 ft 229 kts 232°
2026-04-16 23:01 53.83665 10.40666 5607 ft 229 kts 232°
2026-04-16 23:02 53.82648 10.38609 5351 ft 229 kts 232°
2026-04-16 23:02 53.81622 10.36537 5122 ft 227 kts 232°
2026-04-16 23:02 53.80614 10.34518 4900 ft 227 kts 232°
2026-04-16 23:02 53.79592 10.32470 4653 ft 227 kts 232°
2026-04-16 23:03 53.78577 10.30439 4405 ft 227 kts 232°
2026-04-16 23:03 53.77568 10.28417 4156 ft 225 kts 232°
2026-04-16 23:03 53.76586 10.26413 3894 ft 220 kts 233°
2026-04-16 23:03 53.75619 10.24436 3624 ft 215 kts 233°
2026-04-16 23:04 53.74685 10.22526 3342 ft 209 kts 233°
2026-04-16 23:04 53.73781 10.20676 3081 ft 202 kts 233°
2026-04-16 23:04 53.72918 10.18894 2923 ft 191 kts 233°
2026-04-16 23:04 53.72107 10.17235 2725 ft 173 kts 233°
2026-04-16 23:05 53.71355 10.15707 2513 ft 164 kts 233°
2026-04-16 23:05 53.70638 10.14246 2283 ft 161 kts 233°
2026-04-16 23:05 53.69923 10.12791 2059 ft 162 kts 233°
2026-04-16 23:05 53.69221 10.11364 1878 ft 150 kts 233°
2026-04-16 23:06 53.68592 10.10088 1648 ft 133 kts 233°
2026-04-16 23:06 53.68026 10.08945 1375 ft 123 kts 232°
2026-04-16 23:06 53.67490 10.07867 1103 ft 118 kts 232°
2026-04-16 23:06 53.66985 10.06806 947 ft 117 kts 233°
2026-04-16 23:07 53.66464 10.05732 794 ft 118 kts 232°
2026-04-16 23:07 53.65930 10.04623 822 ft 120 kts 230°
2026-04-16 23:07 53.65390 10.03633 613 ft 113 kts 230°
2026-04-16 23:07 53.64898 10.02636 449 ft 110 kts 233°
2026-04-16 23:08 53.64422 10.01638 303 ft 107 kts 231°
2026-04-16 23:08 53.63948 10.00685 164 ft 109 kts 230°
2026-04-16 23:08 53.63477 9.99721 51 ft 108 kts 231°
2026-04-16 23:08 53.63046 9.98843 35 ft 79 kts 231°
2026-04-16 23:09 53.62783 9.98311 36 ft 40 kts 230°
2026-04-16 23:09 53.62652 9.98044 31 ft 28 kts 230°
2026-04-16 23:09 53.62547 9.97833 27 ft 13 kts 228°
2026-04-16 23:09 53.62474 9.97794 28 ft 8 kts 162°
2026-04-16 23:10 53.62431 9.97861 29 ft 8 kts 110°
2026-04-16 23:10 53.62429 9.97912 30 ft 0 kts 81°